Voltar ao catálogo

COSMOS 839 DEB

AtivoUNKNOWN
NORAD 10413·DEBRIS·🇷🇺 Russia

Lançado Jul 8, 1976 de Plesetsk Cosmodrome

Loading…

Próximas Passagens (próximas 24 horas)

TLE

AtualizadoSource: Space-Track

Época: Sep 14, 2026, 13:15 UTC

1 10413U 76067G   26257.55237997  .00000000  00000-0  21678-3 0  9991
2 10413  65.8773  93.8291 0683045 259.2062 122.8274 12.30005810250307

Acompanhe COSMOS 839 DEB em tempo real com AllMySat

Download on the App Store